Dati Storici

Data ora Umidita' aria (%) Temperatura aria (°C) Rad globale (W/m²) Gonioanemometro (°) Tacoanemometro (m/s) Pioggia (mm)
10-10-2020 11:20 81.1 % 18.207 106.914 1.149 0 0
10-10-2020 11:10 83 % 19.333 53.97 1.086 0 0
10-10-2020 11:00 85.8 % 18.648 12.655 -0.016 0 0
10-10-2020 10:50 87 % 17.306 46.623 1.063 0 0
10-10-2020 10:40 86.7 % 18.5 49.229 1.376 0 0
10-10-2020 10:30 90.6 % 17.858 24.459 0.823 0 0
10-10-2020 10:20 94.9 % 17.535 158.417 0.796 0 0
10-10-2020 10:10 97.8 % 17.268 65.861 0.217 0 0
10-10-2020 10:00 97.8 % 16.17 100.52 0.027 0 0
10-10-2020 09:50 97.8 % 15.676 24.984 0.756 0 0
10-10-2020 09:40 97.8 % 15.127 3.133 0.665 0 0
10-10-2020 09:30 97.8 % 15.001 21.533 1.126 0 0
10-10-2020 09:20 97 % 15.464 100.489 -0.003 0 0
10-10-2020 09:10 97.8 % 15.804 41.712 -0.003 0 0
10-10-2020 09:00 97.8 % 15.498 51.332 0.001 0 0
10-10-2020 08:50 97.9 % 14.749 55.262 0.003 0 0
10-10-2020 08:40 97.9 % 13.867 354.112 0.308 0 0
10-10-2020 08:30 97.9 % 13.536 349.21 0.379 0 0
10-10-2020 08:20 97.9 % 13.287 321.738 0.725 0 0
10-10-2020 08:10 97.9 % 13.048 171.124 0.003 0 0

I dati sono presentati in modo automatico a scopo informativo. In seguito a verifica i dati possono subire modifiche o essere invalidati e non riportati negli archivi definitivi.